| time (UTC) | temp F | wind direction | speed MPH | gust MPH | rain 1hr in | rain 24hr in | rain mn in | humidity % | barometer mb |
| 20260506044542 | 55 | 208 | 0.0 | 1.0 | 0.00 | 0.00 | 0.00 | 82 | 1012.9 |
| 20260506043013 | 55 | 208 | 0.0 | 1.0 | 0.00 | 0.00 | 0.00 | 84 | 1012.8 |
| 20260506041538 | 55 | 208 | 0.0 | 1.0 | 0.00 | 0.00 | 0.00 | 83 | 1012.8 |
| 20260506040002 | 55 | 210 | 0.0 | 0.0 | 0.00 | 0.00 | 0.00 | 84 | 1013.0 |
| 20260506034619 | 55 | 210 | 0.0 | 0.0 | 0.00 | 0.00 | 0.00 | 83 | 1013.2 |
| 20260506033109 | 56 | 210 | 0.0 | 0.0 | 0.00 | 0.00 | 0.00 | 82 | 1013.2 |
| 20260506031606 | 56 | 209 | 0.0 | 0.0 | 0.00 | 0.00 | 0.00 | 80 | 1013.2 |
| 20260506024607 | 57 | 210 | 0.0 | 1.0 | 0.00 | 0.00 | 0.00 | 80 | 1013.1 |
| 20260506023051 | 57 | 210 | 0.0 | 1.0 | 0.00 | 0.00 | 0.00 | 80 | 1013.2 |
| 20260506021550 | 57 | 248 | 0.0 | 1.0 | 0.00 | 0.00 | 0.00 | 81 | 1013.2 |
| 20260506020105 | 57 | 246 | 0.0 | 1.0 | 0.00 | 0.00 | 0.00 | 81 | 1013.3 |
| 20260506014601 | 57 | 204 | 0.0 | 1.0 | 0.00 | 0.00 | 0.00 | 81 | 1013.3 |
| 20260506013012 | 58 | 195 | 0.0 | 1.0 | 0.00 | 0.00 | 0.00 | 80 | 1013.5 |
| 20260506011502 | 58 | 239 | 0.0 | 1.0 | 0.00 | 0.00 | 0.00 | 79 | 1013.5 |
| 20260506010108 | 58 | 219 | 0.0 | 1.0 | 0.00 | 0.00 | 0.00 | 80 | 1013.7 |
| 20260506004608 | 58 | 165 | 0.0 | 3.0 | 0.00 | 0.00 | 0.00 | 79 | 1013.8 |
| 20260506003100 | 58 | 195 | 0.0 | 2.0 | 0.00 | 0.00 | 0.00 | 79 | 1013.9 |
| 20260506001605 | 59 | 211 | 0.0 | 3.0 | 0.00 | 0.00 | 0.00 | 79 | 1014.0 |
| 20260506000119 | 59 | 203 | 1.0 | 4.0 | 0.00 | 0.00 | 0.00 | 79 | 1014.2 |
| 20260505234604 | 59 | 212 | 1.0 | 4.0 | 0.00 | 0.00 | 0.00 | 78 | 1014.2 |
| 20260505233055 | 59 | 207 | 0.0 | 5.0 | 0.00 | 0.00 | 0.00 | 78 | 1014.3 |
| 20260505231602 | 59 | 228 | 0.0 | 10.0 | 0.00 | 0.00 | 0.00 | 77 | 1014.3 |
| 20260505224544 | 60 | 220 | 1.0 | 8.0 | 0.00 | 0.00 | 0.00 | 76 | 1014.3 |
| 20260505223040 | 60 | 204 | 0.0 | 4.0 | 0.00 | 0.00 | 0.00 | 74 | 1014.3 |
| 20260505221537 | 61 | 205 | 0.0 | 7.0 | 0.00 | 0.00 | 0.00 | 73 | 1014.4 |
| 20260505220009 | 61 | 224 | 1.0 | 8.0 | 0.00 | 0.00 | 0.00 | 72 | 1014.4 |
| 20260505214506 | 61 | 245 | 2.0 | 10.0 | 0.00 | 0.00 | 0.00 | 70 | 1014.5 |
| 20260505213113 | 62 | 236 | 1.0 | 5.0 | 0.00 | 0.00 | 0.00 | 69 | 1014.5 |
| 20260505211608 | 62 | 219 | 3.0 | 10.0 | 0.00 | 0.00 | 0.00 | 69 | 1014.5 |
| 20260505210106 | 62 | 200 | 5.0 | 11.0 | 0.00 | 0.00 | 0.00 | 69 | 1014.5 |
| 20260505204604 | 63 | 266 | 2.0 | 11.0 | 0.00 | 0.00 | 0.00 | 68 | 1014.4 |
| 20260505203115 | 63 | 257 | 4.0 | 11.0 | 0.00 | 0.00 | 0.00 | 67 | 1014.3 |
| 20260505201604 | 64 | 248 | 5.0 | 14.0 | 0.00 | 0.00 | 0.00 | 67 | 1014.1 |
| 20260505200046 | 64 | 243 | 3.0 | 14.0 | 0.00 | 0.00 | 0.00 | 66 | 1013.9 |
| 20260505194550 | 65 | 254 | 6.0 | 16.0 | 0.00 | 0.00 | 0.00 | 65 | 1013.7 |
| 20260505193030 | 65 | 264 | 6.0 | 12.0 | 0.00 | 0.00 | 0.00 | 62 | 1013.6 |
| 20260505191507 | 66 | 239 | 4.0 | 13.0 | 0.00 | 0.00 | 0.00 | 60 | 1013.4 |
| 20260505190118 | 67 | 233 | 2.0 | 13.0 | 0.00 | 0.00 | 0.00 | 60 | 1013.4 |
| 20260505184618 | 67 | 255 | 4.0 | 14.0 | 0.00 | 0.00 | 0.00 | 58 | 1013.3 |
| 20260505183107 | 68 | 232 | 2.0 | 11.0 | 0.00 | 0.00 | 0.00 | 55 | 1013.2 |
| 20260505181606 | 70 | 235 | 3.0 | 12.0 | 0.00 | 0.00 | 0.00 | 53 | 1013.2 |
| 20260505180107 | 70 | 236 | 4.0 | 13.0 | 0.00 | 0.00 | 0.00 | 49 | 1013.2 |
| 20260505174604 | 71 | 228 | 3.0 | 13.0 | 0.00 | 0.00 | 0.00 | 45 | 1013.1 |
| 20260505173113 | 73 | 254 | 4.0 | 17.0 | 0.00 | 0.00 | 0.00 | 42 | 1013.1 |
| 20260505171625 | 75 | 232 | 3.0 | 15.0 | 0.00 | 0.00 | 0.00 | 40 | 1013.1 |
| 20260505170050 | 75 | 250 | 5.0 | 11.0 | 0.00 | 0.00 | 0.00 | 35 | 1013.2 |
| 20260505164555 | 76 | 239 | 0.0 | 6.0 | 0.00 | 0.00 | 0.00 | 29 | 1013.2 |
| 20260505163046 | 76 | 327 | 0.0 | 5.0 | 0.00 | 0.00 | 0.00 | 29 | 1013.3 |
| 20260505161553 | 75 | 219 | 1.0 | 5.0 | 0.00 | 0.00 | 0.00 | 30 | 1013.3 |
| 20260505153008 | 75 | 242 | 1.0 | 5.0 | 0.00 | 0.00 | 0.00 | 30 | 1013.5 |
| 20260505151535 | 75 | 240 | 0.0 | 6.0 | 0.00 | 0.00 | 0.00 | 30 | 1013.5 |
| 20260505150127 | 75 | 337 | 0.0 | 6.0 | 0.00 | 0.00 | 0.00 | 30 | 1013.6 |
| 20260505124503 | 72 | 348 | 1.0 | 7.0 | 0.00 | 0.00 | 0.00 | 33 | 1015.2 |
| 20260505123116 | 71 | 284 | 1.0 | 7.0 | 0.00 | 0.00 | 0.00 | 33 | 1015.2 |
| 20260505121634 | 72 | 259 | 0.0 | 6.0 | 0.00 | 0.00 | 0.00 | 35 | 1015.4 |
| 20260505120106 | 72 | 200 | 0.0 | 7.0 | 0.00 | 0.00 | 0.00 | 35 | 1015.5 |
| 20260505114554 | 71 | 226 | 0.0 | 5.0 | 0.00 | 0.00 | 0.00 | 37 | 1015.7 |
| 20260505113055 | 69 | 89 | 1.0 | 5.0 | 0.00 | 0.00 | 0.00 | 39 | 1015.8 |
| 20260505111553 | 69 | 351 | 1.0 | 7.0 | 0.00 | 0.00 | 0.00 | 40 | 1016.1 |
| 20260505101542 | 68 | 314 | 0.0 | 1.0 | 0.00 | 0.00 | 0.00 | 47 | 1016.3 |
| 20260505100039 | 66 | 298 | 0.0 | 1.0 | 0.00 | 0.00 | 0.00 | 53 | 1016.4 |
| 20260505094608 | 67 | 337 | 0.0 | 1.0 | 0.00 | 0.00 | 0.00 | 52 | 1016.3 |
| 20260505093102 | 66 | 239 | 0.0 | 1.0 | 0.00 | 0.00 | 0.00 | 55 | 1016.4 |
| 20260505091619 | 65 | 269 | 0.0 | 2.0 | 0.00 | 0.00 | 0.00 | 57 | 1016.4 |
| 20260505090100 | 65 | 323 | 0.0 | 3.0 | 0.00 | 0.00 | 0.00 | 58 | 1016.5 |
| 20260505084550 | 63 | 82 | 0.0 | 1.0 | 0.00 | 0.00 | 0.00 | 59 | 1016.6 |
| 20260505083049 | 62 | 343 | 0.0 | 2.0 | 0.00 | 0.00 | 0.00 | 60 | 1016.6 |
| 20260505081512 | 62 | 60 | 0.0 | 1.0 | 0.00 | 0.00 | 0.00 | 61 | 1016.6 |
| 20260505080115 | 61 | 125 | 0.0 | 1.0 | 0.00 | 0.00 | 0.00 | 65 | 1016.6 |
| 20260505074618 | 61 | 221 | 0.0 | 1.0 | 0.00 | 0.00 | 0.00 | 65 | 1016.5 |
| 20260505073117 | 60 | 221 | 0.0 | 1.0 | 0.00 | 0.00 | 0.00 | 69 | 1016.5 |
| 20260505071613 | 60 | 221 | 0.0 | 0.0 | 0.00 | 0.00 | 0.00 | 73 | 1016.5 |
| 20260505070110 | 60 | 221 | 0.0 | 0.0 | 0.00 | 0.00 | 0.00 | 73 | 1016.5 |
| 20260505064610 | 60 | 221 | 0.0 | 0.0 | 0.00 | 0.00 | 0.00 | 73 | 1016.5 |
| 20260505063100 | 60 | 221 | 0.0 | 0.0 | 0.00 | 0.00 | 0.00 | 74 | 1016.4 |
| 20260505061601 | 58 | 221 | 0.0 | 0.0 | 0.00 | 0.00 | 0.00 | 78 | 1016.2 |
| 20260505060058 | 55 | 221 | 0.0 | 0.0 | 0.00 | 0.00 | 0.00 | 85 | 1016.2 |
| 20260505054613 | 54 | 221 | 0.0 | 0.0 | 0.00 | 0.00 | 0.00 | 85 | 1016.1 |
| 20260505053045 | 54 | 221 | 0.0 | 0.0 | 0.00 | 0.00 | 0.00 | 84 | 1016.0 |
| 20260505051517 | 54 | 221 | 0.0 | 0.0 | 0.00 | 0.00 | 0.00 | 79 | 1015.9 |
| 20260505050116 | 55 | 221 | 0.0 | 0.0 | 0.00 | 0.00 | 0.00 | 78 | 1015.7 |